Location: Unspecified
(0.0000°N, 0.0000°E)
Time: 02:43:40
(UTC+00:00)

Tiros 1 - Pass Details

Date: 23 April 2026
Orbit: 618 x 648 km, 48.4° (Epoch: 15 May)

Event Time Altitude Azimuth Distance (km) Brightness Sun altitude
Exits shadow 04:42:20 23° 204° (SSW) 1,326 8.4 -18.5°
Maximum altitude 04:45:04 63° 129° (SE) 692 7.4 -17.9°
Drops below altitude 10° 04:49:33 10° 48° (NE) 1,969 10.6 -16.8°
Sets 04:51:51 0° 45° (NE) 2,871 11.5 -16.2°
